TimeMST,TemperatureF,Dew PointF,Humidity,Sea Level PressureIn,VisibilityMPH,Wind Direction,Wind SpeedMPH,Gust SpeedMPH,PrecipitationIn,Events,Conditions,WindDirDegrees,DateUTC
12:54 AM,16.0,7.0,68,29.92,10.0,SW,6.9,-,N/A,,Overcast,220,2012-12-19 07:54:00
1:54 AM,14.0,6.1,71,29.94,10.0,SW,10.4,-,N/A,,Clear,230,2012-12-19 08:54:00
2:54 AM,10.9,3.9,73,29.96,10.0,SW,11.5,-,N/A,,Clear,220,2012-12-19 09:54:00
3:54 AM,7.0,-0.0,73,29.98,10.0,SW,5.8,-,N/A,,Clear,230,2012-12-19 10:54:00
4:54 AM,12.0,3.0,67,29.97,10.0,Variable,3.5,-,N/A,,Clear,0,2012-12-19 11:54:00
5:54 AM,10.9,1.9,67,30.00,10.0,WNW,4.6,-,N/A,,Clear,290,2012-12-19 12:54:00
6:54 AM,12.0,1.9,64,30.02,10.0,NW,3.5,-,N/A,,Clear,310,2012-12-19 13:54:00
7:54 AM,12.0,1.9,64,30.04,10.0,WSW,5.8,-,N/A,,Clear,250,2012-12-19 14:54:00
8:54 AM,16.0,5.0,62,30.05,10.0,SW,12.7,-,N/A,,Clear,230,2012-12-19 15:54:00
9:54 AM,19.9,6.1,55,30.06,10.0,SW,15.0,-,N/A,,Clear,230,2012-12-19 16:54:00
10:54 AM,24.1,8.1,51,30.06,10.0,WSW,9.2,-,N/A,,Clear,250,2012-12-19 17:54:00
11:54 AM,26.1,3.9,39,30.06,10.0,West,16.1,-,N/A,,Clear,270,2012-12-19 18:54:00
12:54 PM,26.1,3.0,37,30.05,10.0,West,16.1,23.0,N/A,,Clear,280,2012-12-19 19:54:00
1:54 PM,25.0,3.9,41,30.05,10.0,West,8.1,-,N/A,,Clear,280,2012-12-19 20:54:00
2:54 PM,25.0,6.1,45,30.06,10.0,WSW,18.4,-,N/A,,Partly Cloudy,240,2012-12-19 21:54:00
3:54 PM,21.9,6.1,51,30.09,10.0,WSW,15.0,-,N/A,,Clear,240,2012-12-19 22:54:00
4:54 PM,18.0,5.0,57,30.09,10.0,SW,13.8,-,N/A,,Clear,220,2012-12-19 23:54:00
5:54 PM,16.0,3.9,59,30.10,10.0,SW,12.7,-,N/A,,Clear,220,2012-12-20 00:54:00
6:54 PM,17.1,3.0,54,30.10,10.0,SW,13.8,-,N/A,,Clear,220,2012-12-20 01:54:00
7:54 PM,16.0,1.9,54,30.09,10.0,SSW,11.5,-,N/A,,Clear,200,2012-12-20 02:54:00
8:54 PM,16.0,3.0,57,30.08,10.0,SSW,8.1,-,N/A,,Clear,210,2012-12-20 03:54:00
9:54 PM,19.9,5.0,52,30.06,10.0,SW,18.4,-,N/A,,Clear,230,2012-12-20 04:54:00
10:54 PM,24.1,7.0,48,30.04,10.0,WSW,19.6,25.3,N/A,,Clear,240,2012-12-20 05:54:00
11:54 PM,24.1,9.0,53,30.03,10.0,WSW,10.4,-,N/A,,Clear,250,2012-12-20 06:54:00